{"data":{"norad_id":68784,"intl_designator":"2026-086U","name":"STARLINK-37401","alt_names":[],"object_type":"PAYLOAD","status":"ACTIVE","operator":null,"country":"US","launch_date":"2026-04-19","launch_site_code":"AFWTR","launch_vehicle":null,"mission":null,"orbit_class":"UNKNOWN","rcs_meters":null,"size_class":null,"mass_kg":null,"dimensions":null,"purposes":["comms"],"wikipedia_slug":null,"has_3d_model":false,"image_url":null,"decayed_at":null,"tle_current":{"epoch":"2026-09-19T00:56:55.952736Z","epoch_age_seconds":166119,"freshness":"FRESH","line1":"1 68784U 26086U   26262.03953649  .00012111  00000+0  37699-3 0  9994","line2":"2 68784  97.2849 297.5254 0001285  88.0752 272.0638 15.33434897 23464","mean_motion":15.33434897,"eccentricity":0.0001285,"inclination_deg":97.2849,"raan_deg":297.5254,"arg_perigee_deg":88.0752,"mean_anomaly_deg":272.0638,"bstar":0.00037699,"rev_number":2346,"period_min":93.906823355671,"perigee_km":464.69381729803,"apogee_km":466.45265082818,"semimajor_km":6843.7102340631,"source":"CELESTRAK","updated_at":"2026-09-20T09:00:44.002538Z"}}}